User: anonymous   Login
Location: Unspecified
(0.0000°N, 0.0000°E)
Time: 13:00:27
(UTC+00:00)
Language:

GALILEO 7 (263) - Orbit

View from above orbital plane
View from above orbital plane
View from above satellite
View from above satellite

Ground track
Ground track

The orbit data is extracted from the following two-line orbital elements,

1 40544U 15017A   17351.00785764 -.00000071  00000-0  00000+0 0  9993
2 40544  55.7564  66.8641 0004149 236.9260 123.0643  1.70475688 16932
Epoch (UTC): 17 December 2017 00:11:18
Eccentricity: 0.0004149
inclination: 55.7564°
perigee height: 23209 km
apogee height: 23234 km
right ascension of ascending node: 66.8641°
argument of perigee: 236.9260°
revolutions per day: 1.70475688
mean anomaly at epoch: 123.0643°
orbit number at epoch: 1693

The dashed part of the orbit path shows where the satellite is in the earth's shadow,  

DLR